AirNav   ATP
 
 632 users online  

I20
(formerly 2IG4)
Ed-Air Airport
Oaktown, Indiana, USA

GOING TO OAKTOWN?


FAA INFORMATION EFFECTIVE 16 AUGUST 2018

Location

FAA Identifier: I20
Lat/Long: 38-51-05.3950N / 087-29-59.2550W
38-51.089917N / 087-29.987583W
38.8514986 / -87.4997931
(estimated)
Elevation: 426 ft. / 130 m (estimated)
Variation: 01W (1985)
From city: 3 miles SW of OAKTOWN, IN
Time zone: UTC -4 (UTC -5 during Standard Time)
Zip code: 47561

Airport Operations

Airport use: Open to the public
Activation date: 02/1944
Control tower: no
ARTCC: INDIANAPOLIS CENTER
FSS: TERRE HAUTE FLIGHT SERVICE STATION
NOTAMs facility: HUF (NOTAM-D service not available)
Attendance: IREG
Wind indicator: yes
Segmented circle: no
Lights: RUNWAY LIGHTS FOR OWNER'S USE ONLY.
Beacon: white-green (lighted land airport)
BEACON FOR OWNER'S USE ONLY.

Airport Communications

CTAF/UNICOM: 122.8
WX ASOS at LWV (7 nm SW): 118.0 (618-943-5252)
WX AWOS-3 at RSV (12 nm NW): 120.50 (618-586-2772)
WX AWOS-3 at AJG (18 nm SW): 134.900 (618-948-2184)
WX AWOS-3PT at DCY (20 nm SE): 124.1 (812-257-8889)

Nearby radio navigation aids

VOR radial/distance  VOR name  Freq  Var
LWVr046/6.9LAWRENCEVILLE VOR/DME108.8001W
SAMr048/35.2SAMSVILLE VOR/DME116.6003E
TTHr195/40.0TERRE HAUTE VORTAC115.3002E

 
NDB name  Hdg/Dist  Freq  Var  ID
PALESTINE149/11.839103WPLX .--. .-.. -..-
SULLIVAN191/15.932602WSIV ... .. ...-
OLNEY079/32.527203WOLY --- .-.. -.--

Airport Services

Airframe service: MINOR
Powerplant service: MINOR

Runway Information

Runway 18/36

Dimensions: 5835 x 100 ft. / 1779 x 30 m
Surface: asphalt, in fair condition
Runway edge lights: low intensity
RUNWAY 18  RUNWAY 36
Latitude: 38-51.570333N38-50.609500N
Longitude: 087-29.992333W087-29.982833W
Elevation: 426.0 ft.426.0 ft.
Traffic pattern: leftleft
Displaced threshold: 100 ft.85 ft.
Markings: basic, in good conditionbasic, in good condition
Obstructions: 12 ft. tank, 295 ft. from runway, 115 ft. right of centerline, 8:1 slope to clear13 ft. road, 316 ft. from runway, 9:1 slope to clear

Airport Ownership and Management from official FAA records

Ownership: Privately-owned
Owner: EDWARD A. HUDDLESTON
RR4 BOX 303
SULLIVAN, IN 47882
Phone 812-268-5220
Manager: EDWARD A. HUDDLESTON
2253 EAST AIRPORT ROAD
OAKTOWN, IN 47561
Phone 812-268-5220

Airport Operational Statistics

Aircraft based on the field: 4
Single engine airplanes: 1
Multi engine airplanes: 2
Helicopters: 1
    
Aircraft operations: avg 46/month *
55% transient general aviation
45% local general aviation
* for 12-month period ending 31 December 2015

Additional Remarks

HANGAR NEAR NORTH END-WEST SIDE OF RWY.

Instrument Procedures

There are no published instrument procedures at I20.

Some nearby airports with instrument procedures:

KLWV - Lawrenceville-Vincennes International Airport (7 nm SW)
KRSV - Crawford County Airport (12 nm NW)
KSIV - Sullivan County Airport (16 nm N)
KAJG - Mount Carmel Municipal Airport (18 nm SW)
KDCY - Daviess County Airport (20 nm SE)
 
Loc | Ops | Rwys | IFR | FBO | Links
Com | Nav | Svcs | Stats | Notes


 
Area around I20 (Ed-Air Airport)
 
Road maps at: MapQuest Bing Google
 
Aerial photo
No photo
 
Sectional chart

 
Airport distance calculator
Flying to Ed-Air Airport? Find the distance to fly.

From to I20

Sunrise and sunset
Times for 21-Aug-2018
 Local
(UTC-4)
 Zulu
(UTC)
Morning civil twilight06:4210:42
Sunrise07:1011:10
Sunset20:3600:36
Evening civil twilight21:0401:04

Current date and time
Zulu (UTC)  21-Aug-2018 10:59:50
Local (UTC-4)  21-Aug-2018 06:59:50
 
METAR
KLWV 
7nm SW 
211053Z AUTO 21006KT 10SM OVC011 21/19 A2983 RMK AO2 SLP095 T02110194
KRSV 
12nm NW 
211035Z AUTO 24005KT 10SM OVC009 20/20 A2982 RMK AO2 T02030202
KAJG 
18nm SW 
211035Z AUTO 22004KT 10SM SCT009 OVC110 20/20 A2983 RMK AO2 T02000196
KDCY 
20nm SE 
211035Z AUTO 24005KT 10SM BKN013 BKN100 OVC120 21/19 A2983 RMK AO2 T02070192
TAF
KHUF 
37nm N 
210817Z 2108/2206 27006KT P6SM SCT013 BKN030 FM211200 23007KT P6SM VCSH OVC008 FM211500 25005KT P6SM OVC015 FM211900 28007KT P6SM BKN060 FM220500 32005KT P6SM SCT150
KHNB 
44nm SE 
210557Z 2106/2206 22008KT P6SM BKN015 FM211600 26010KT P6SM VCSH BKN022 FM212100 28012G18KT P6SM SCT040 FM220100 30006KT P6SM SCT025
KBMG 
45nm NE 
210527Z 2106/2206 16004KT 6SM TSRA FEW020CB BKN040 FM210800 21008KT P6SM VCTS BKN010CB FM211200 23008KT P6SM VCSH OVC008 FM211500 24005KT P6SM OVC020 FM212000 27007KT P6SM VCSH BKN050 FM220000 30005KT P6SM BKN070 AMD LTD TO CLD VIS AND WIND TIL 211300
NOTAMs
Click for the latest NOTAMs
NOTAMs are issued by the DoD/FAA and will open in a separate window not controlled by AirNav.

 

 
 

Would you like to see your business listed on this page?

 If your business provides an interesting product or service to pilots, flight crews, aircraft, or users of the Ed-Air Airport, you should consider listing it here.  To start the listing process, click on the button below
 
Add a business
 

Other Pages about Ed-Air Airport

Update a link
 
Copyright © AirNav, LLC. All rights reserved. Privacy Policy  Contact